User: anonymous   Login
Location: Petruro
(41.0333°N, 14.7833°E)
Time: 16:35:44
(UTC+00:00)
Language:

USA 229 - Orbit

View from above orbital plane
View from above orbital plane
View from above satellite
View from above satellite

Ground track
Ground track

The orbit data is extracted from the following two-line orbital elements,

1 37386U 11014A   21269.15680370 0.00000000  00000-0  00000-0 0    07
2 37386  63.4507   0.4558 0204593 357.6153   2.3847 13.40815330    01
Epoch (UTC): 26 September 2021 03:45:47
Eccentricity: 0.0204593
inclination: 63.4507°
perigee height: 953 km
apogee height: 1259 km
right ascension of ascending node: 0.4558°
argument of perigee: 357.6153°
revolutions per day: 13.40815330
mean anomaly at epoch: 2.3847°
orbit number at epoch: 0

The dashed part of the orbit path shows where the satellite is in the earth's shadow,  

DLR